Hourly Data Report for November 03, 2006

TORONTO CITY
ONTARIO

43°40'00.000" N
79°24'00.000" W
112.50 m
6158355
71508
XTO

Download Data

Hourly Data (November 2006)
Hourly Data Report for November 3, 2006
TIME
LST
Temp Definition
°C
Dew Point Definition
°C
Rel Hum Definition
%
Precip. Amount Definition
mm

Wind Dir Definition
10's deg

Wind Spd Definition
km/h
Visibility Definition
km
Stn Press Definition
kPa
Hmdx Definition


Wind Chill Definition


Weather Definition


00:00 0.3 -3.0 78   LegendMM LegendMM   100.76     LegendNANA
01:00 0.3 -2.7 80   LegendMM LegendMM   100.80     LegendNANA
02:00 0.2 -2.7 81   LegendMM LegendMM   100.83     LegendNANA
03:00 0.2 -2.7 81   LegendMM LegendMM   100.87     LegendNANA
04:00 0.2 -2.4 83   LegendMM LegendMM   100.91     LegendNANA
05:00 0.1 -2.2 84   LegendMM LegendMM   100.95     LegendNANA
06:00 -0.1 -2.2 86   LegendMM LegendMM   100.99     LegendNANA
07:00 0.0 -2.1 86   LegendMM LegendMM   101.02     LegendNANA
08:00 0.6 -1.9 83   LegendMM LegendMM   101.09     LegendNANA
09:00 1.9 -1.8 76   LegendMM LegendMM   101.11     LegendNANA
10:00 3.6 -1.8 68   LegendMM LegendMM   101.13     LegendNANA
11:00 4.9 -2.2 60   LegendMM LegendMM   101.15     LegendNANA
12:00 4.7 -4.0 53   LegendMM LegendMM   101.15     LegendNANA
13:00 4.6 -5.7 47   LegendMM LegendMM   101.12     LegendNANA
14:00 4.7 -6.0 46   LegendMM LegendMM   101.15     LegendNANA
15:00 4.4 -5.3 49   LegendMM LegendMM   101.18     LegendNANA
16:00 3.8 -5.5 51   LegendMM LegendMM   101.22     LegendNANA
17:00 3.5 -5.2 53   LegendMM LegendMM   101.28     LegendNANA
18:00 2.5 -4.9 58   LegendMM LegendMM   101.36     LegendNANA
19:00 2.2 -4.3 62   LegendMM LegendMM   101.43     LegendNANA
20:00 1.8 -4.2 64   LegendMM LegendMM   101.44     LegendNANA
21:00 1.3 -4.0 68   LegendMM LegendMM   101.48     LegendNANA
22:00 0.9 -3.6 72   LegendMM LegendMM   101.51     LegendNANA
23:00 0.6 -3.6 73   LegendMM LegendMM   101.54     LegendNANA

Notes on Data Quality.

Legend

  • E = Estimated
  • M = Missing
  • NA = Not Available*
  • [empty] = Indicates an unobserved value
Date modified: